Regional Weather Roundup
Issued by NWS

Home | Current Version | Previous Version | Graphics & Text | Print | Product List | Glossary On
Versions: 1 2 3 4 5 6 7 8 9 10 11 12 13 14 15 16 17 18 19 20 21 22 23 24 25 26 27 28 29 30 31 32 33 34 35 36 37 38 39 40 41 42 43 44 45 46 47 48 49 50
000
ASUS43 KFSD 261710
RWRSD

WEATHER ROUNDUP FOR SOUTH DAKOTA
NATIONAL WEATHER SERVICE SIOUX FALLS SD
1200 PM CDT FRI AUG 26 2016

NOTE: "FAIR" INDICATES FEW OR NO CLOUDS BELOW 12,000 FEET WITH NO
SIGNIFICANT WEATHER AND/OR OBSTRUCTIONS TO VISIBILITY.


SDZ001>005-009-010-012>017-261800-
NORTHWEST AND NORTH CENTRAL SOUTH DAKOTA

CITY           SKY/WX    TMP DP  RH WIND       PRES   REMARKS
BUFFALO          N/A     73  46  38 SE12G20   30.01F
FAITH            N/A     61  56  83 S14       30.12F
MOBRIDGE       LGT RAIN  59  53  80 S17       30.13F
$$

SDZ012>016-024>037-041>051-057-063-072>074-261800-
SOUTHWEST AND SOUTH CENTRAL SOUTH DAKOTA

CITY           SKY/WX    TMP DP  RH WIND       PRES   REMARKS
RAPID CTY ARPT CLOUDY    56  52  86 SE3       30.13F
PIERRE         LGT RAIN  58  56  93 NW7       30.18F
CUSTER         FOG       49  47  93 N5        30.17F VSB 1/4
ELLSWORTH AFB  PTSUNNY   57  53  84 SE8       30.12
PHILIP         CLOUDY    56  55  97 E10       30.13F
PINE RIDGE     LGT RAIN  59  59 100 SW7       30.12F
WINNER         CLOUDY    70  52  52 SW5       30.16S
$$

SDZ004>011-016>023-039-040-261800-
NORTHEAST SOUTH DAKOTA

CITY           SKY/WX    TMP DP  RH WIND       PRES   REMARKS
ABERDEEN       CLOUDY    71  51  49 S12       30.15R
WATERTOWN      SUNNY     68  52  56 S7        30.16F
BROOKINGS      CLOUDY    67  55  65 VRB7      30.16F
SISSETON         N/A     72  51  47 SE7       30.12F
$$

SDZ017-020-022-023-036>040-048>070-261800-
SOUTHEAST SOUTH DAKOTA

CITY           SKY/WX    TMP DP  RH WIND       PRES   REMARKS
SIOUX FALLS    PTSUNNY   71  57  61 SE7       30.16F
HURON          SUNNY     69  52  54 VRB7      30.16R
CHAMBERLAIN    CLOUDY    69  55  60 S5        30.17R
MITCHELL       CLOUDY    69  52  54 VRB5      30.16F
YANKTON        MOSUNNY   68  55  64 E7        30.14F
$$

ABBREVIATIONS USED IN REMARKS
   TC - TEMPERATURE IN CELSIUS
  WCI - WIND CHILL INDEX
   HX - HEAT INDEX
  VSB - VISIBILITY





USA.gov is the U.S. government's official web portal to all federal, state and local government web resources and services.